Torna al catalogo

FLOCK 4H 34

AttivoScienzaSSO
NORAD 66737·PAYLOAD·🇺🇸 United States

Lanciato Nov 28, 2025 da Vandenberg Space Force Base

Loading…

Prossimi Passaggi (prossime 24 ore)

TLE

AggiornatoSource: CelesTrak SupGP

Epoca: Sep 14, 2026, 16:45 UTC

1 66737C 25276BZ  26257.69802083  .00003641  00000+0  16235-3 0  2579
2 66737  97.4163 330.2051 0002522  34.6109 191.3859 15.21482947    19

Traccia FLOCK 4H 34 in tempo reale con AllMySat

Download on the App Store